Home > Weather > Kiel > Past weeks

Flag for Germany Past Weather in Kiel, Schleswig-Holstein, Germany — Yesterday and Last 2 Weeks

Now
70 °F

Scattered clouds.


Feels Like: 70 °F
Forecast: 58 / 71 °F
Wind: 7 mph from West

Location: Kiel / Holtenau Civilian

Current Time: Jul 28, 2016 at 4:33:01 PM

Latest Report: Jul 28, 2016 at 3:50 PM


Visibility: N/A

Pressure: 29.95 "Hg

Humidity: 53%

Dew Point: 52 °F

Location of KielLocation

Past Weather in Kiel — Graph

°F

Kiel Temperature Yesterday

Maximum temperature yesterday: 72 °F (at 1:50 PM)
Minimum temperature yesterday: 63 °F (at 8:20 AM)
Average temperature yesterday: 68 °F

High & Low Weather Summary for the Past Weeks

 TemperatureHumidityPressure
High82 °F (Jul 21, 2:50 PM)100% (Jul 13, 7:50 PM)30.15 "Hg (Jul 13, 7:50 PM)
Low57 °F (Jul 14, 8:20 AM)42% (Jul 22, 3:50 PM)29.89 "Hg (Jul 13, 3:20 PM)
Average69 °F78%30.05 "Hg
* Reported Jul 13 3:20 PM — Jul 28 3:20 PM, Kiel, Weather by CustomWeather, © 2016

Note: Actual official high and low records may vary slightly from our data, if they occured in-between our weather recording intervals... More about our weather records

Advertising

Kiel Weather History for the Previous 24 Hours

Scroll right to see more
 ConditionsComfort  
Time TempWeatherWind HumidityBarometerVisibility
3:20 PM
Thu, Jul 28
72 °FScattered clouds.8 mph57%29.95 "HgN/A
2:50 PM72 °FScattered clouds.7 mph65%29.95 "HgN/A
2:20 PM72 °FScattered clouds.5 mph53%29.98 "HgN/A
1:50 PM70 °FScattered clouds.3 mph60%29.98 "HgN/A
1:20 PM66 °FScattered clouds.6 mph68%29.98 "HgN/A
12:50 PM70 °FScattered clouds.2 mph69%29.98 "HgN/A
12:20 PM66 °FScattered clouds.5 mph68%29.98 "HgN/A
11:50 AM66 °FScattered clouds.3 mph64%29.98 "HgN/A
11:20 AM66 °FScattered clouds.3 mph73%29.98 "HgN/A
10:50 AM66 °FScattered clouds.5 mph68%29.98 "HgN/A
10:20 AM66 °FScattered clouds.3 mph73%29.98 "HgN/A
9:50 AM64 °FPassing clouds.6 mph78%29.98 "HgN/A
9:20 AM64 °FScattered clouds.6 mph88%29.98 "HgN/A
8:50 AM63 °FScattered clouds.5 mph88%29.98 "HgN/A
8:20 AM61 °FScattered clouds.6 mph94%29.98 "HgN/A
5:50 PM
Wed, Jul 27
70 °FScattered showers. Overcast.7 mph78%29.92 "HgN/A
5:20 PM70 °FPartly sunny.7 mph78%29.92 "Hg6 mi
4:50 PM70 °FPassing clouds.7 mph78%29.92 "HgN/A
4:20 PM72 °FPassing clouds.7 mph69%29.92 "HgN/A
Weather by CustomWeather, © 2016

See weather overviewHow to use our weather pages